Home   Weather   Krefeld   Past weeks

Flag for Germany Past Weather in Krefeld, North Rhine-Westphalia, Germany — Yesterday and Last 2 Weeks

Now
64 °F

Clear.


Feels Like: 64 °F
Forecast: 47 / 71 °F
Wind: 12 mph from South

Location: Duesseldorf

Current Time: May 23, 2017 at 3:00:19 am

Latest Report: May 23, 2017 at 2:20 am


Visibility: 10 mi

Pressure: 29.98 "Hg

Humidity: 56%

Dew Point: 48 °F

Location of KrefeldLocation

Past Weather in Krefeld — Graph

°F

Krefeld Temperature Yesterday

Maximum temperature yesterday: 77 °F (at 5:50 pm)
Minimum temperature yesterday: 48 °F (at 2:50 am)
Average temperature yesterday: 64 °F

High & Low Weather Summary for the Past Weeks

 TemperatureHumidityPressure
High84 °F (May 17, 4:20 pm)100% (May 10, 5:50 am)30.42 "Hg (May 10, 5:50 am)
Low32 °F (May 10, 6:20 am)23% (May 15, 7:20 pm)29.39 "Hg (May 11, 6:50 pm)
Average60 °F65%30.00 "Hg
* Reported May 8 1:20 am — May 23 1:50 am, Krefeld. Weather by CustomWeather, © 2017

Note: Actual official high and low records may vary slightly from our data, if they occured in-between our weather recording intervals... More about our weather records

Advertising

Krefeld Weather History for the Previous 24 Hours

Scroll right to see more
 ConditionsComfort  
Time TempWeatherWind HumidityBarometerVisibility
1:50 am
Tue, May 23
66 °FClear.12 mph52%29.98 "Hg10 mi
1:20 am66 °FClear.13 mph52%29.98 "Hg10 mi
12:50 am66 °FClear.9 mph52%29.98 "Hg10 mi
12:20 am66 °FClear.9 mph52%30.01 "Hg10 mi
11:50 pm
Mon, May 22
68 °FClear.7 mph49%30.01 "Hg10 mi
11:20 pm68 °FClear.7 mph49%29.98 "Hg10 mi
10:50 pm70 °FClear.8 mph46%30.01 "Hg10 mi
10:20 pm70 °FClear.5 mph46%30.01 "Hg10 mi
9:50 pm68 °FClear.6 mph46%29.98 "Hg10 mi
9:20 pm68 °FSunny.6 mph49%29.98 "Hg10 mi
8:50 pm70 °FSunny.6 mph46%29.98 "Hg10 mi
8:20 pm73 °FPassing clouds.6 mph36%29.98 "HgN/A
7:50 pm72 °FPassing clouds.7 mph41%29.98 "HgN/A
7:20 pm75 °FPassing clouds.6 mph34%29.98 "HgN/A
6:50 pm75 °FSunny.9 mph34%29.98 "Hg10 mi
6:20 pm75 °FPassing clouds.5 mph34%30.01 "HgN/A
5:50 pm77 °FPassing clouds.6 mph32%30.01 "HgN/A
5:20 pm75 °FSunny.8 mph39%30.01 "Hg10 mi
4:50 pm75 °FSunny.5 mph39%30.04 "Hg10 mi
4:20 pm73 °FSunny.3 mph36%30.04 "Hg10 mi
3:50 pm75 °FPassing clouds.9 mph36%30.04 "HgN/A
2:50 pm73 °FSunny.10 mph38%30.07 "Hg10 mi
2:20 pm73 °FSunny.6 mph38%30.07 "Hg10 mi
1:50 pm73 °FPassing clouds.10 mph38%30.07 "HgN/A
1:20 pm73 °FPassing clouds.12 mph36%30.07 "HgN/A
12:50 pm72 °FPassing clouds.9 mph44%30.09 "HgN/A
12:20 pm72 °FPassing clouds.7 mph44%30.09 "HgN/A
11:50 am72 °FPassing clouds.10 mph44%30.09 "HgN/A
11:20 am70 °FPassing clouds.10 mph50%30.12 "HgN/A
10:50 am70 °FPassing clouds.10 mph46%30.12 "HgN/A
10:20 am68 °FPassing clouds.9 mph49%30.12 "HgN/A
9:50 am66 °FPassing clouds.13 mph52%30.12 "HgN/A
9:20 am66 °FPassing clouds.12 mph49%30.12 "HgN/A
8:50 am64 °FPassing clouds.6 mph52%30.12 "HgN/A
8:20 am63 °FPassing clouds.6 mph56%30.12 "HgN/A
7:50 am61 °FSunny.1 mph68%30.12 "Hg10 mi
7:20 am55 °FSunny.1 mph77%30.12 "Hg10 mi
6:50 am52 °FSunny.2 mph82%30.12 "Hg10 mi
6:20 am48 °FSunny.1 mph87%30.15 "Hg10 mi
5:50 am48 °FSunny.2 mph87%30.15 "Hg10 mi
5:20 am48 °FClear.3 mph87%30.15 "Hg10 mi
4:50 am48 °FClear.6 mph87%30.15 "Hg10 mi
4:20 am50 °FClear.3 mph88%30.15 "Hg10 mi
3:50 am52 °FPassing clouds.5 mph77%30.15 "HgN/A
3:20 am50 °FClear.5 mph82%30.15 "Hg10 mi
Weather by CustomWeather, © 2017

See weather overviewHow to use our weather pages